INTELSAT 33E DEB, 61990

Orbit data source: Space-Track

INTELSAT 33E DEB, 61990 is space debris in GEO originally from a launch on Wed, 24 Aug 2016 UTC launched from the French Guiana (FRGUI). Debris objects in space refer to the collection of defunct objects orbiting the Earth. Examples of debris include non-operational satellites, rocket bodies, and fragments generated from explosions, collisions, or faulty payload assembly.

Not visible in the next 10 days
Identifier
61990, 2016-053G
Orbit
GEO
Last TLE update
2 days ago
Origin
Manufacturer
Boeing/ES
Mission
Spacecraft
Bus & Motor
Unknown
Mass
Unknown
Launch date (UTC)
2016-08-24 (9 years ago)
Launch vehicle
Unknown
Launch site
French Guiana (FRGUI)
Object type
Payload
Rocket body
Debris
Shape & HBR
Unknown
Radar Cross Section
RCS unknown

Expand to show TLE details & history

TLE from 2 days ago
0 INTELSAT 33E DEB
1 61990U 16053G   25185.20484414  .00000077  00000-0  00000-0 0  9992
2 61990   0.5997  68.1079 0127074 345.1252 307.9250  1.01376265  2628
Epoch: 2025-07-04T04:54Z
TLE epoch observation values (Epoch: 2025-07-04T04:54:58.533Z)
Latitude
-0.56161°
Longitude
3.79676°
Altitude
35,158.321 km
Speed
3.11 km/s
True Right ascension
00h 00m 00s
True Declination
0° 33' 40"
Sunlit
Object was in daylight at epoch
Visualization orbit readout
Latitude
0.45935°
Longitude
-157.89924°
Altitude
35,911.493 km
Speed
3.054 km/s
Apparent Right ascension
13h 35m 37s
Apparent Declination
-4° 46' 12"
Sunlit
Object is in daylight
Visualization observer readout
Local Sidereal Time
05:25:16
Azimuth
71.521° E
Elevation
-27.711°
Doppler factor
1
Orbital elements
Apogee altitude
36,012.781 km
Perigee altitude
34,948.943 km
Semi-major axis
41,858.999 km
Eccentricity
0.01271
Inclination
0.5997°
RAAN
68.1079°
Arg. of periapsis
345.1252°
True anomaly
Unknown
Mean anomaly
307.925°
Eccentric anomaly
Unknown
Mean motion
0.25343 °/min
Orbital period
1,420.5 mins
BSTAR
0
Loading historical data...
61990 neighbors
Loading maneuver chart data...
Loading SW <> Apogee altitude chart data...
Loading historical data...
Loading historical data...
Loading historical data...
Loading historical data...
Loading historical data...
Loading historical data...
Loading historical data...

INTELSAT 33E DEB Visibility

Observer location: undefined°, undefined°

INTELSAT 33E DEB is likely not visible in the next few days
Span
Click to sort rows by Start time (UTC) header in descending order
Start Az.
Max El. time (UTC)
Max El. Az.
Max El.
End time (UTC)
End Az.
|